FW1048 Weather Reports


time (UTC)temp
C
wind
direction
speed
KPH
gust
KPH
rain 1hr
cm
rain 24hr
cm
rain mn
cm
humidity
%
barometer
mb
20260507035314 12 153 0.0 0.0 0.00 3.81 0.08 98 1010.9
20260507034312 12 153 0.0 3.2 0.00 3.81 0.08 98 1010.8
20260507033813 12 153 0.0 3.2 0.00 3.81 0.08 98 1010.9
20260507033312 12 153 0.0 1.6 0.00 3.81 0.08 98 1010.8
20260507032813 12 153 0.0 3.2 0.00 3.81 0.08 98 1010.8
20260507032313 12 153 0.0 3.2 0.00 3.81 0.08 98 1010.8
20260507031813 12 153 0.0 3.2 0.00 3.81 0.08 98 1010.8
20260507031312 12 153 0.0 3.2 0.00 3.81 0.08 98 1010.7
20260507030814 12 153 1.6 3.2 0.00 3.91 0.08 98 1010.8
20260507030312 12 153 1.6 3.2 0.00 3.94 0.08 98 1010.8
20260507025812 12 154 0.0 3.2 0.00 4.09 0.08 98 1010.8
20260507025313 12 153 0.0 4.8 0.00 4.09 0.08 98 1010.7
20260507023812 12 138 0.0 4.8 0.00 4.09 0.08 98 1010.7
20260507023312 12 138 0.0 4.8 0.00 4.09 0.08 98 1010.7
20260507022813 12 138 1.6 4.8 0.00 4.09 0.08 98 1010.5
20260507022312 12 138 1.6 3.2 0.00 4.09 0.08 98 1010.5
20260507021813 12 138 0.0 3.2 0.00 4.09 0.08 98 1010.6
20260507021312 12 138 0.0 1.6 0.00 4.09 0.08 98 1010.6
20260507015312 12 137 1.6 4.8 0.00 4.09 0.08 98 1010.6
20260507014812 12 122 0.0 3.2 0.03 4.09 0.08 98 1010.6
20260507014312 12 122 0.0 3.2 0.03 4.09 0.08 98 1010.7
20260507013812 12 122 0.0 0.0 0.03 4.09 0.08 98 1010.7
20260507013313 13 122 0.0 3.2 0.03 4.09 0.08 98 1010.6
20260507012813 13 122 1.6 4.8 0.03 4.09 0.08 98 1010.5
20260507011813 13 300 1.6 3.2 0.03 4.09 0.08 98 1010.4
20260507011312 12 299 0.0 3.2 0.03 4.11 0.08 98 1010.4
20260507010813 13 300 0.0 4.8 0.03 4.11 0.08 98 1010.4
20260507010312 13 300 1.6 4.8 0.03 4.14 0.08 98 1010.4
20260507005813 13 299 0.0 4.8 0.03 4.17 0.08 98 1010.4
20260507005312 13 299 1.6 3.2 0.03 4.17 0.08 98 1010.4
20260507004812 13 299 0.0 3.2 0.00 4.17 0.05 98 1010.4
20260507004312 13 299 1.6 3.2 0.00 4.19 0.05 98 1010.5
20260507003813 13 299 0.0 3.2 0.00 4.19 0.05 98 1010.5
20260507003312 13 299 0.0 4.8 0.00 4.19 0.05 98 1010.6
20260507002813 13 299 1.6 4.8 0.00 4.22 0.05 98 1010.7
20260507002312 13 167 1.6 4.8 0.00 4.22 0.05 98 1010.8
20260507001812 13 296 0.0 4.8 0.00 4.29 0.05 98 1010.8
20260507001312 12 296 1.6 4.8 0.00 4.29 0.05 98 1010.7
20260507000813 13 296 1.6 4.8 0.00 4.29 0.05 98 1010.7
20260507000314 13 296 1.6 4.8 0.00 4.29 0.05 98 1010.7
20260506235812 13 296 3.2 4.8 0.00 4.29 0.05 98 1010.7
20260506235313 12 296 0.0 4.8 0.00 4.29 0.05 98 1010.7
20260506234312 12 295 1.6 4.8 0.00 4.29 0.05 98 1010.9
20260506233812 12 295 1.6 4.8 0.00 4.29 0.05 98 1010.8
20260506233312 13 296 0.0 4.8 0.00 4.32 0.05 98 1010.9
20260506232812 13 272 1.6 4.8 0.00 4.34 0.05 98 1011.0
20260506232312 13 245 0.0 4.8 0.03 4.39 0.05 98 1011.0
20260506231812 13 245 3.2 4.8 0.05 4.47 0.05 98 1010.9
20260506231313 13 146 1.6 3.2 0.05 4.50 0.05 98 1010.9
20260506230812 13 146 0.0 1.6 0.05 4.57 0.05 98 1011.1
20260506230312 13 146 1.6 3.2 0.05 4.62 0.05 98 1011.0
20260506225812 13 146 1.6 3.2 0.05 4.67 0.05 98 1010.9
20260506225313 13 146 1.6 3.2 0.05 4.75 0.05 98 1010.9
20260506224812 13 146 0.0 3.2 0.05 4.75 0.05 98 1010.9
20260506224312 13 146 1.6 3.2 0.08 4.75 0.05 98 1010.8
20260506223812 13 145 1.6 3.2 0.08 4.75 0.05 98 1010.8
20260506222812 13 144 1.6 8.0 0.08 4.78 0.05 98 1010.8
20260506222312 13 354 3.2 8.0 0.05 4.75 0.05 98 1010.7
20260506221812 13 173 3.2 8.0 0.05 4.75 0.03 98 1010.7
20260506221312 13 264 1.6 4.8 0.03 4.72 0.00 98 1010.7
20260506220819 13 265 0.0 9.7 0.03 4.72 0.00 98 1010.7
20260506215312 13 272 1.6 3.2 0.08 4.72 4.72 98 1010.5
20260506214811 13 272 0.0 3.2 0.08 4.72 4.72 98 1010.7
20260506214312 13 272 1.6 3.2 0.08 4.72 4.72 98 1010.7
20260506213812 13 272 1.6 3.2 0.05 4.70 4.70 98 1010.6
20260506213312 13 246 0.0 3.2 0.05 4.70 4.70 98 1010.6
20260506212812 13 246 0.0 4.8 0.05 4.70 4.70 98 1010.6
20260506212312 13 246 1.6 4.8 0.05 4.72 4.70 98 1010.6
20260506211812 13 236 1.6 3.2 0.05 4.75 4.70 98 1010.6
20260506211312 13 236 0.0 3.2 0.05 4.75 4.70 98 1010.6
20260506210811 13 236 0.0 3.2 0.05 4.75 4.70 98 1010.7
20260506210312 13 235 1.6 4.8 0.05 4.72 4.67 98 1010.7
20260506205311 13 225 1.6 3.2 0.00 4.67 4.65 98 1010.9
20260506204812 13 225 0.0 3.2 0.00 4.67 4.65 98 1010.9
20260506203812 13 225 1.6 4.8 0.00 4.70 4.65 98 1010.9
20260506203312 13 217 3.2 8.0 0.00 4.70 4.65 98 1010.7
20260506202812 13 168 1.6 8.0 0.00 4.70 4.65 98 1010.7
20260506202312 13 274 1.6 3.2 0.05 4.70 4.65 98 1010.6
20260506201812 13 273 0.0 3.2 0.08 4.72 4.65 98 1010.5
20260506201312 13 274 1.6 3.2 0.15 4.75 4.65 98 1010.5
20260506200812 13 274 0.0 3.2 0.25 4.80 4.65 98 1010.5
20260506200312 13 274 0.0 3.2 0.43 4.80 4.65 98 1010.6
20260506195812 13 274 0.0 3.2 0.48 4.85 4.65 98 1010.6
20260506195312 13 274 0.0 4.8 0.61 4.90 4.65 98 1010.6
20260506193813 13 205 3.2 4.8 0.69 5.16 4.65 97 1010.3
20260506193311 13 94 1.6 4.8 0.71 5.23 4.65 97 1010.2
20260506192811 13 340 3.2 4.8 0.71 5.28 4.65 97 1010.1
20260506192312 13 340 1.6 4.8 0.66 5.31 4.60 97 1009.9
20260506191811 13 340 1.6 4.8 0.61 5.31 4.57 97 1009.7
20260506191312 13 313 4.8 4.8 0.53 5.31 4.47 97 1009.8
20260506190812 13 186 3.2 4.8 0.43 5.28 4.37 97 1009.8
20260506190312 13 255 1.6 3.2 0.25 5.16 4.19 97 1009.5
20260506185812 13 255 1.6 4.8 0.23 5.16 4.17 97 1009.5
20260506185312 13 255 3.2 4.8 0.10 5.08 4.04 97 1009.4
20260506184812 13 255 1.6 4.8 0.03 5.05 3.96 97 1009.4
20260506184311 13 255 1.6 4.8 0.03 5.16 3.96 97 1009.3
20260506183812 13 252 1.6 4.8 0.03 5.23 3.96 97 1009.3
20260506182811 13 252 0.0 4.8 0.05 5.31 3.94 97 1009.5
20260506182312 13 252 0.0 4.8 0.05 5.41 3.94 97 1009.5
20260506181812 13 142 1.6 4.8 0.10 5.46 3.94 97 1009.4
20260506181311 13 265 0.0 4.8 0.15 5.51 3.94 97 1009.4
20260506180812 13 250 1.6 4.8 0.23 5.54 3.94 97 1009.4
20260506175811 13 147 3.2 4.8 0.23 5.59 3.94 97 1009.6
20260506174811 13 126 3.2 8.0 0.23 5.64 3.94 97 1009.6
20260506174312 13 109 3.2 9.7 0.23 5.69 3.94 97 1009.6
20260506173811 14 157 4.8 14.5 0.23 5.71 3.94 97 1009.3
20260506173312 14 127 8.0 14.5 0.23 5.74 3.94 97 1009.2
20260506172812 14 123 3.2 4.8 0.18 5.71 3.91 97 1009.1
20260506172312 14 123 3.2 4.8 0.15 5.74 3.89 97 1009.0
20260506171811 14 75 1.6 4.8 0.13 5.71 3.84 97 1008.9
20260506171311 14 318 1.6 4.8 0.05 5.69 3.78 97 1008.8
20260506170811 13 317 1.6 4.8 0.00 5.61 3.71 97 1008.6
20260506170312 13 317 0.0 1.6 0.00 5.69 3.71 97 1008.6
20260506165811 13 317 0.0 4.8 0.00 5.69 3.71 97 1008.6
20260506165311 13 317 1.6 4.8 0.00 5.69 3.71 97 1008.7
20260506164812 13 317 3.2 4.8 0.00 5.74 3.71 97 1008.8
20260506164311 14 317 1.6 3.2 0.00 5.79 3.71 97 1008.8
20260506163811 14 317 0.0 1.6 0.00 5.82 3.71 97 1008.9
20260506163312 14 317 0.0 1.6 0.00 5.82 3.71 97 1009.0
20260506162812 14 317 0.0 4.8 0.00 5.84 3.71 97 1009.0
20260506162311 14 317 0.0 4.8 0.00 5.84 3.71 97 1009.0
20260506161311 14 22 1.6 4.8 0.00 5.87 3.71 97 1009.1
20260506160811 14 25 3.2 3.2 0.00 5.89 3.71 97 1009.1
20260506155811 14 25 1.6 3.2 0.00 5.92 3.71 97 1009.2
20260506155311 14 25 1.6 3.2 0.00 5.92 3.71 97 1009.3
20260506154812 14 25 1.6 4.8 0.00 5.94 3.71 97 1009.3
20260506154311 14 25 1.6 4.8 0.00 5.94 3.71 97 1009.4
20260506153813 14 25 1.6 4.8 0.00 5.94 3.71 97 1009.4
20260506153311 14 77 0.0 4.8 0.00 5.94 3.71 97 1009.5
20260506151811 13 329 3.2 4.8 0.00 5.97 3.71 97 1009.7
20260506151311 13 329 1.6 3.2 0.00 5.97 3.71 97 1009.7
20260506150812 13 329 0.0 3.2 0.00 5.97 3.71 97 1009.7
20260506150311 13 329 0.0 4.8 0.00 5.97 3.71 97 1009.7
20260506145811 13 329 1.6 4.8 0.00 5.97 3.71 97 1009.7
20260506144811 14 329 4.8 4.8 0.00 5.97 3.71 97 1009.8
20260506144312 14 324 1.6 9.7 0.00 5.97 3.71 97 1009.9
20260506143811 14 324 4.8 9.7 0.00 5.97 3.71 96 1009.9
20260506142811 14 299 1.6 4.8 0.03 5.99 3.71 96 1010.1
20260506142311 14 299 0.0 3.2 0.03 5.99 3.71 96 1010.1
20260506141811 14 299 0.0 4.8 0.03 5.99 3.71 96 1010.1
20260506141311 14 299 0.0 4.8 0.05 5.99 3.71 96 1010.1
20260506140811 14 299 0.0 4.8 0.08 6.02 3.71 96 1010.1
20260506140311 14 299 0.0 3.2 0.10 6.02 3.71 96 1010.2
20260506135811 14 299 0.0 3.2 0.15 6.02 3.71 96 1010.3
20260506135311 14 299 1.6 4.8 0.20 6.02 3.71 96 1010.3
20260506134311 14 26 1.6 3.2 0.30 6.05 3.71 96 1010.4
20260506133811 14 118 1.6 4.8 0.33 6.05 3.71 97 1010.4
20260506133311 14 118 0.0 8.0 0.33 6.05 3.71 97 1010.5
20260506132810 14 123 3.2 8.0 0.36 6.07 3.71 97 1010.5
20260506132311 14 179 3.2 11.3 0.41 6.07 3.71 97 1010.5
20260506131312 14 99 1.6 4.8 0.43 6.07 3.68 97 1010.5
20260506130810 14 267 1.6 3.2 0.46 6.02 3.63 97 1010.6
20260506130311 14 267 0.0 3.2 0.46 6.02 3.63 97 1010.5
20260506125811 14 267 0.0 3.2 0.43 5.97 3.58 97 1010.4
20260506125311 13 267 1.6 4.8 0.43 5.92 3.53 97 1010.5
20260506124811 13 267 0.0 4.8 0.43 5.87 3.45 97 1010.4
20260506124311 13 266 0.0 3.2 0.43 5.84 3.43 97 1010.5
20260506123811 13 266 0.0 4.8 0.43 5.79 3.38 97 1010.4
20260506123311 13 266 1.6 4.8 0.48 5.79 3.38 97 1010.4
20260506122811 13 266 3.2 4.8 0.48 5.79 3.33 97 1010.5
20260506121810 13 0 1.6 4.8 0.51 5.77 3.30 97 1010.7
20260506121311 13 140 3.2 4.8 0.46 5.71 3.25 98 1010.7
20260506120810 13 274 0.0 4.8 0.41 5.66 3.17 98 1010.7
20260506120311 13 266 1.6 4.8 0.38 5.66 3.15 98 1010.7
20260506115811 13 192 1.6 4.8 0.36 5.66 3.15 98 1010.8
20260506115310 14 64 1.6 4.8 0.33 5.64 3.10 98 1010.9
20260506114811 13 136 0.0 4.8 0.28 5.59 3.05 98 1010.7
20260506113811 13 172 0.0 1.6 0.20 5.51 2.95 98 1010.5
20260506113311 13 172 0.0 1.6 0.20 5.51 2.90 98 1010.5
20260506112810 13 172 0.0 3.2 0.18 5.49 2.87 98 1010.6
20260506112311 13 172 0.0 3.2 0.15 5.49 2.84 98 1010.7
20260506111811 13 172 1.6 3.2 0.15 5.46 2.79 98 1010.7
20260506111312 13 172 0.0 3.2 0.13 5.44 2.77 98 1010.7
20260506105811 13 172 1.6 4.8 0.13 5.51 2.77 98 1010.7
20260506105311 14 172 1.6 3.2 0.13 5.51 2.77 98 1010.8
20260506104811 14 172 1.6 1.6 0.10 5.49 2.77 98 1010.7
20260506104311 14 172 0.0 3.2 0.13 5.51 2.77 98 1010.7
20260506103811 14 172 1.6 3.2 0.10 5.49 2.74 98 1010.7
20260506103310 14 171 0.0 1.6 0.05 5.44 2.69 98 1010.8
20260506102810 14 171 0.0 1.6 0.05 5.41 2.69 98 1011.0
20260506102311 13 171 0.0 1.6 0.05 5.41 2.69 98 1011.1
20260506101811 14 171 0.0 1.6 0.05 5.41 2.67 98 1011.0
20260506101311 13 171 0.0 3.2 0.05 5.41 2.67 98 1011.2
20260506100811 13 171 0.0 3.2 0.05 5.41 2.67 98 1011.2
20260506100311 13 171 0.0 0.0 0.05 5.41 2.67 98 1011.1
20260506095810 13 171 0.0 0.0 0.08 5.41 2.67 98 1011.1
20260506095310 13 171 0.0 0.0 0.10 5.41 2.67 98 1011.2
20260506094810 13 171 0.0 0.0 0.15 5.41 2.67 98 1011.2
20260506094311 13 171 0.0 0.0 0.15 5.38 2.64 98 1011.2
20260506092811 13 171 0.0 3.2 0.33 5.38 2.64 98 1011.3
20260506092310 13 171 1.6 3.2 0.43 5.38 2.64 98 1011.3
20260506091810 13 171 0.0 1.6 0.53 5.36 2.62 98 1011.3
20260506091310 13 171 0.0 3.2 0.61 5.36 2.62 98 1011.3
20260506090811 13 171 0.0 4.8 0.71 5.36 2.62 98 1011.3
20260506090310 13 172 0.0 4.8 0.74 5.33 2.59 98 1011.3
20260506085810 13 240 1.6 4.8 0.79 5.31 2.59 98 1011.2
20260506085311 13 240 0.0 3.2 0.79 5.31 2.57 98 1011.4
20260506084810 13 105 0.0 3.2 0.76 5.26 2.51 98 1011.3
20260506084311 13 105 1.6 8.0 0.79 5.23 2.49 98 1011.5
20260506083810 12 105 0.0 8.0 0.76 5.21 2.46 98 1011.5
20260506083310 12 130 1.6 4.8 0.74 5.13 2.39 98 1011.3
20260506082811 12 119 1.6 4.8 0.71 5.05 2.31 98 1011.2
20260506082312 12 119 1.6 4.8 0.64 4.93 2.21 98 1011.3
20260506081811 12 133 3.2 4.8 0.58 4.83 2.08 98 1011.2
20260506081310 13 115 1.6 4.8 0.56 4.75 2.01 98 1011.1
20260506080310 13 165 1.6 4.8 0.56 4.60 1.85 98 1010.9
20260506073311 13 164 0.0 0.0 0.61 4.39 1.65 98 1011.3
20260506072810 13 164 0.0 0.0 0.61 4.34 1.60 98 1011.3
20260506072310 13 164 0.0 1.6 0.56 4.29 1.55 98 1011.3
20260506071810 13 164 0.0 1.6 0.51 4.24 1.50 98 1011.3
20260506071310 13 164 0.0 0.0 0.43 4.19 1.45 98 1011.3
20260506070810 13 164 0.0 4.8 0.36 4.09 1.37 98 1011.3
20260506070310 13 167 0.0 4.8 0.30 4.04 1.30 98 1011.3
20260506062310 13 153 0.0 3.2 0.00 3.73 0.99 98 1011.0
20260506061810 13 145 0.0 0.0 0.00 3.73 0.99 98 1011.1
20260506060811 13 145 0.0 3.2 0.00 3.73 0.99 98 1011.0
20260506060310 13 145 0.0 3.2 0.00 3.73 0.99 98 1011.0
20260506051310 12 148 0.0 0.0 0.00 3.73 0.99 98 1011.0
20260506050810 12 148 0.0 4.8 0.00 3.73 0.99 98 1011.0
20260506050310 12 147 0.0 4.8 0.00 3.73 0.99 98 1011.1
20260506043310 12 252 0.0 3.2 0.00 3.73 0.99 98 1010.8
20260506042810 12 252 1.6 3.2 0.00 3.73 0.99 98 1011.0
20260506042310 12 252 1.6 1.6 0.00 3.73 0.99 98 1011.1
20260506041809 12 252 0.0 1.6 0.00 3.73 0.99 98 1011.1
20260506040810 12 252 0.0 3.2 0.10 3.73 0.99 98 1011.2
20260506040310 12 252 1.6 3.2 0.15 3.73 0.99 98 1011.2
20260506035810 12 252 0.0 3.2 0.28 3.73 0.99 98 1011.2